TimeEDT,TemperatureF,Dew PointF,Humidity,Sea Level PressureIn,VisibilityMPH,Wind Direction,Wind SpeedMPH,Gust SpeedMPH,PrecipitationIn,Events,Conditions,WindDirDegrees,DateUTC
12:53 AM,57.9,55.9,93,29.91,10.0,SSE,3.5,-,N/A,,Mostly Cloudy,160,2012-10-27 04:53:00
1:53 AM,60.1,57.0,90,29.90,10.0,Calm,Calm,-,N/A,,Overcast,0,2012-10-27 05:53:00
2:53 AM,60.1,57.9,93,29.89,10.0,West,4.6,-,N/A,,Overcast,260,2012-10-27 06:53:00
3:53 AM,59.0,57.0,93,29.88,10.0,Calm,Calm,-,N/A,,Mostly Cloudy,0,2012-10-27 07:53:00
4:53 AM,59.0,57.0,93,29.88,10.0,Calm,Calm,-,N/A,,Mostly Cloudy,0,2012-10-27 08:53:00
5:53 AM,57.0,57.0,100,29.88,7.0,Calm,Calm,-,N/A,,Clear,0,2012-10-27 09:53:00
6:16 AM,57.2,57.2,100,29.91,7.0,Calm,Calm,-,N/A,,Mostly Cloudy,0,2012-10-27 10:16:00
6:53 AM,57.9,57.0,97,29.89,8.0,Calm,Calm,-,N/A,,Overcast,0,2012-10-27 10:53:00
7:53 AM,57.9,55.0,90,29.90,10.0,Variable,4.6,-,N/A,,Overcast,0,2012-10-27 11:53:00
8:53 AM,57.0,53.1,87,29.93,10.0,NNW,4.6,-,N/A,,Overcast,340,2012-10-27 12:53:00
9:53 AM,55.9,52.0,87,29.93,10.0,Variable,5.8,-,N/A,,Overcast,0,2012-10-27 13:53:00
11:53 AM,57.9,51.1,78,29.93,10.0,North,9.2,-,N/A,,Overcast,350,2012-10-27 15:53:00
12:53 PM,57.9,51.1,78,29.90,10.0,NNW,8.1,-,N/A,,Overcast,340,2012-10-27 16:53:00
1:53 PM,59.0,50.0,72,29.87,10.0,Variable,3.5,-,N/A,,Overcast,0,2012-10-27 17:53:00
2:53 PM,59.0,48.9,69,29.85,10.0,NNW,8.1,-,N/A,,Overcast,340,2012-10-27 18:53:00
3:53 PM,57.9,48.9,72,29.84,10.0,Variable,5.8,16.1,N/A,,Overcast,0,2012-10-27 19:53:00
4:53 PM,57.9,48.0,70,29.84,10.0,Variable,5.8,-,N/A,,Overcast,0,2012-10-27 20:53:00
5:53 PM,57.0,48.0,72,29.84,10.0,NNW,9.2,-,N/A,,Overcast,340,2012-10-27 21:53:00
6:53 PM,55.0,46.9,74,29.86,10.0,North,5.8,-,N/A,,Overcast,350,2012-10-27 22:53:00
7:53 PM,54.0,46.9,77,29.86,10.0,NNW,9.2,-,N/A,,Overcast,330,2012-10-27 23:53:00
8:53 PM,54.0,46.0,75,29.86,10.0,Variable,3.5,19.6,N/A,,Overcast,0,2012-10-28 00:53:00
9:53 PM,53.1,46.0,77,29.86,10.0,NW,11.5,18.4,N/A,,Overcast,320,2012-10-28 01:53:00
10:53 PM,52.0,46.0,80,29.88,10.0,Variable,6.9,-,N/A,,Overcast,0,2012-10-28 02:53:00